Time,TemperatureF,DewpointF,PressureIn,WindDirection,WindDirectionDegrees,WindSpeedMPH,WindSpeedGustMPH,Humidity,HourlyPrecipIn,Conditions,Clouds,dailyrainin,SoftwareType,DateUTC
2013-02-08 00:04:00,43.5,38.1,29.97,North,0,0.0,0.0,81,0.00,RA,,0.00,WeatherDisplay:10.37,2013-02-08 08:04:00,
2013-02-08 00:09:00,43.5,38.4,29.97,North,0,0.0,0.0,82,0.00,CLR,,0.00,WeatherDisplay:10.37,2013-02-08 08:09:00,
2013-02-08 00:14:00,43.5,38.4,29.97,North,0,0.0,0.0,82,0.00,CLR,,0.00,WeatherDisplay:10.37,2013-02-08 08:14:00,
2013-02-08 00:19:00,43.3,38.2,29.97,North,0,0.0,0.0,82,0.00,CLR,,0.00,WeatherDisplay:10.37,2013-02-08 08:19:00,
2013-02-08 00:29:00,43.2,38.0,29.97,North,0,0.0,0.0,82,0.00,CLR,,0.00,WeatherDisplay:10.37,2013-02-08 08:29:00,
2013-02-08 00:34:00,43.0,37.9,29.96,North,0,0.0,0.0,82,0.00,CLR,,0.00,WeatherDisplay:10.37,2013-02-08 08:34:00,
2013-02-08 00:39:00,43.0,38.2,29.96,North,0,0.0,0.0,83,0.00,CLR,,0.00,WeatherDisplay:10.37,2013-02-08 08:39:00,
2013-02-08 00:49:00,43.0,38.2,29.96,North,0,0.0,0.0,83,0.00,CLR,,0.00,WeatherDisplay:10.37,2013-02-08 08:49:00,
2013-02-08 00:54:00,43.0,38.2,29.96,North,0,0.0,0.0,83,0.00,CLR,,0.00,WeatherDisplay:10.37,2013-02-08 08:54:00,
2013-02-08 00:59:00,43.2,38.3,29.95,North,0,0.0,0.0,83,0.00,CLR,,0.00,WeatherDisplay:10.37,2013-02-08 08:59:00,
2013-02-08 01:04:00,43.2,38.3,29.95,North,0,0.0,0.0,83,0.00,CLR,,0.00,WeatherDisplay:10.37,2013-02-08 09:04:00,
2013-02-08 01:09:00,43.0,38.2,29.95,North,0,0.0,0.0,83,0.00,CLR,,0.00,WeatherDisplay:10.37,2013-02-08 09:09:00,
2013-02-08 01:14:00,42.8,38.0,29.95,North,0,0.0,0.0,83,0.00,CLR,,0.00,WeatherDisplay:10.37,2013-02-08 09:14:00,
2013-02-08 01:19:00,42.8,38.0,29.95,North,0,0.0,0.0,83,0.00,CLR,,0.00,WeatherDisplay:10.37,2013-02-08 09:19:00,
2013-02-08 01:24:00,42.8,38.0,29.95,North,0,0.0,0.0,83,0.00,CLR,,0.00,WeatherDisplay:10.37,2013-02-08 09:24:00,
2013-02-08 01:29:00,42.8,38.3,29.95,North,0,0.0,0.0,84,0.00,CLR,,0.00,WeatherDisplay:10.37,2013-02-08 09:29:00,
2013-02-08 01:34:00,42.8,38.3,29.95,North,0,0.0,0.0,84,0.00,CLR,,0.00,WeatherDisplay:10.37,2013-02-08 09:34:00,
2013-02-08 01:39:00,42.8,38.3,29.95,North,0,0.0,0.0,84,0.00,CLR,,0.00,WeatherDisplay:10.37,2013-02-08 09:39:00,
2013-02-08 01:44:00,42.8,38.3,29.95,North,0,0.0,0.0,84,0.00,CLR,,0.00,WeatherDisplay:10.37,2013-02-08 09:44:00,
2013-02-08 01:49:00,42.8,38.3,29.94,North,0,0.0,0.0,84,0.00,CLR,,0.00,WeatherDisplay:10.37,2013-02-08 09:49:00,
2013-02-08 01:59:00,43.0,38.5,29.94,North,0,0.0,0.0,84,0.00,CLR,,0.00,WeatherDisplay:10.37,2013-02-08 09:59:00,
2013-02-08 02:04:00,43.1,38.9,29.94,North,0,0.0,0.0,85,0.00,CLR,,0.00,WeatherDisplay:10.37,2013-02-08 10:04:00,
2013-02-08 02:09:00,43.2,39.0,29.93,North,0,0.0,0.0,85,0.00,CLR,,0.00,WeatherDisplay:10.37,2013-02-08 10:09:00,
2013-02-08 02:14:00,43.3,39.1,29.93,North,0,0.0,0.0,85,0.00,CLR,,0.00,WeatherDisplay:10.37,2013-02-08 10:14:00,
2013-02-08 02:19:00,43.3,38.8,29.93,North,0,0.0,0.0,84,0.00,CLR,,0.00,WeatherDisplay:10.37,2013-02-08 10:19:00,
2013-02-08 02:24:00,43.2,38.7,29.93,North,0,0.0,0.0,84,0.00,CLR,,0.00,WeatherDisplay:10.37,2013-02-08 10:24:00,
2013-02-08 02:29:00,43.2,38.7,29.93,North,0,0.0,0.0,84,0.00,CLR,,0.00,WeatherDisplay:10.37,2013-02-08 10:29:00,
2013-02-08 02:34:00,43.2,38.7,29.92,North,0,0.0,0.0,84,0.00,CLR,,0.00,WeatherDisplay:10.37,2013-02-08 10:34:00,
2013-02-08 02:39:00,43.2,39.0,29.92,North,0,0.0,0.0,85,0.01,RA,,0.01,WeatherDisplay:10.37,2013-02-08 10:39:00,
2013-02-08 02:44:00,43.2,39.0,29.92,North,0,0.0,0.0,85,0.00,RA,,0.01,WeatherDisplay:10.37,2013-02-08 10:44:00,
2013-02-08 02:49:00,43.2,39.0,29.91,North,0,0.0,0.0,85,0.00,CLR,,0.01,WeatherDisplay:10.37,2013-02-08 10:49:00,
2013-02-08 02:54:00,43.2,39.0,29.91,North,0,0.0,0.0,85,0.00,CLR,,0.01,WeatherDisplay:10.37,2013-02-08 10:54:00,
2013-02-08 02:59:00,43.2,39.0,29.91,North,0,0.0,0.0,85,0.00,CLR,,0.01,WeatherDisplay:10.37,2013-02-08 10:59:00,
2013-02-08 03:04:00,43.2,39.0,29.91,North,0,0.0,0.0,85,0.00,CLR,,0.01,WeatherDisplay:10.37,2013-02-08 11:04:00,
2013-02-08 03:09:00,43.2,39.0,29.91,North,0,0.0,0.0,85,0.00,CLR,,0.01,WeatherDisplay:10.37,2013-02-08 11:09:00,
2013-02-08 03:14:00,43.2,39.0,29.91,North,0,0.0,0.0,85,0.00,CLR,,0.01,WeatherDisplay:10.37,2013-02-08 11:14:00,
2013-02-08 03:19:00,43.2,39.0,29.91,North,0,0.0,0.0,85,0.00,CLR,,0.01,WeatherDisplay:10.37,2013-02-08 11:19:00,
2013-02-08 03:24:00,43.3,39.1,29.91,North,0,0.0,0.0,85,0.00,CLR,,0.01,WeatherDisplay:10.37,2013-02-08 11:24:00,
2013-02-08 03:29:00,43.5,39.3,29.90,North,0,0.0,0.0,85,0.00,CLR,,0.01,WeatherDisplay:10.37,2013-02-08 11:29:00,
2013-02-08 03:34:00,43.5,39.3,29.90,North,0,0.0,0.0,85,0.00,CLR,,0.01,WeatherDisplay:10.37,2013-02-08 11:34:00,
2013-02-08 03:39:00,43.4,39.2,29.90,North,0,0.0,0.0,85,0.00,CLR,,0.01,WeatherDisplay:10.37,2013-02-08 11:39:00,
2013-02-08 03:44:00,43.3,39.1,29.90,North,0,0.0,0.0,85,0.00,CLR,,0.01,WeatherDisplay:10.37,2013-02-08 11:44:00,
2013-02-08 03:49:00,43.2,39.0,29.90,North,0,0.0,0.0,85,0.00,CLR,,0.01,WeatherDisplay:10.37,2013-02-08 11:49:00,
2013-02-08 03:54:00,43.2,39.0,29.90,North,0,0.0,0.0,85,0.00,CLR,,0.01,WeatherDisplay:10.37,2013-02-08 11:54:00,
2013-02-08 03:59:00,43.2,39.0,29.90,North,0,0.0,0.0,85,0.01,RA,,0.02,WeatherDisplay:10.37,2013-02-08 11:59:00,
2013-02-08 04:04:00,43.2,39.0,29.90,North,0,0.0,0.0,85,0.00,RA,,0.02,WeatherDisplay:10.37,2013-02-08 12:04:00,
2013-02-08 04:09:00,43.2,39.0,29.90,North,0,0.0,0.0,85,0.00,,,0.02,WeatherDisplay:10.37,2013-02-08 12:09:00,
2013-02-08 04:14:00,43.2,39.0,29.90,North,0,0.0,0.0,85,0.00,CLR,,0.02,WeatherDisplay:10.37,2013-02-08 12:14:00,
2013-02-08 04:19:00,43.0,38.8,29.90,North,0,0.0,0.0,85,0.00,CLR,,0.02,WeatherDisplay:10.37,2013-02-08 12:19:00,
2013-02-08 04:24:00,43.0,38.8,29.90,North,0,0.0,0.0,85,0.00,CLR,,0.02,WeatherDisplay:10.37,2013-02-08 12:24:00,
2013-02-08 04:34:00,43.0,39.1,29.90,North,0,0.0,0.0,86,0.00,CLR,,0.02,WeatherDisplay:10.37,2013-02-08 12:34:00,
2013-02-08 04:39:00,43.2,39.3,29.90,North,0,0.0,0.0,86,0.00,CLR,,0.02,WeatherDisplay:10.37,2013-02-08 12:39:00,
2013-02-08 04:49:00,43.2,39.3,29.90,North,0,0.0,0.0,86,0.00,CLR,,0.02,WeatherDisplay:10.37,2013-02-08 12:49:00,
2013-02-08 04:54:00,43.2,39.0,29.90,North,0,0.0,0.0,85,0.00,CLR,,0.02,WeatherDisplay:10.37,2013-02-08 12:54:00,
2013-02-08 04:59:00,43.0,38.8,29.90,North,0,0.0,0.0,85,0.00,CLR,,0.02,WeatherDisplay:10.37,2013-02-08 12:59:00,
2013-02-08 05:04:00,43.0,38.8,29.90,North,0,0.0,0.0,85,0.00,CLR,,0.02,WeatherDisplay:10.37,2013-02-08 13:04:00,
2013-02-08 05:09:00,43.0,39.1,29.89,North,0,0.0,0.0,86,0.00,CLR,,0.02,WeatherDisplay:10.37,2013-02-08 13:09:00,
2013-02-08 05:14:00,42.8,38.9,29.90,North,0,0.0,0.0,86,0.00,CLR,,0.02,WeatherDisplay:10.37,2013-02-08 13:14:00,
2013-02-08 05:19:00,42.8,38.9,29.89,North,0,0.0,0.0,86,0.00,CLR,,0.02,WeatherDisplay:10.37,2013-02-08 13:19:00,
2013-02-08 05:24:00,42.8,38.9,29.89,North,0,0.0,0.0,86,0.00,CLR,,0.02,WeatherDisplay:10.37,2013-02-08 13:24:00,
2013-02-08 05:29:00,42.8,38.6,29.89,North,0,0.0,0.0,85,0.00,CLR,,0.02,WeatherDisplay:10.37,2013-02-08 13:29:00,
2013-02-08 05:34:00,42.8,38.6,29.90,North,0,0.0,0.0,85,0.00,CLR,,0.02,WeatherDisplay:10.37,2013-02-08 13:34:00,
2013-02-08 05:39:00,42.8,38.6,29.90,North,0,0.0,0.0,85,0.00,CLR,,0.02,WeatherDisplay:10.37,2013-02-08 13:39:00,
2013-02-08 05:44:00,42.8,38.6,29.90,North,0,0.0,0.0,85,0.00,CLR,,0.02,WeatherDisplay:10.37,2013-02-08 13:44:00,
2013-02-08 05:49:00,42.8,38.9,29.90,North,0,0.0,0.0,86,0.00,CLR,,0.02,WeatherDisplay:10.37,2013-02-08 13:49:00,
2013-02-08 05:54:00,43.0,39.1,29.90,North,0,0.0,0.0,86,0.00,CLR,,0.02,WeatherDisplay:10.37,2013-02-08 13:54:00,
2013-02-08 05:59:00,43.2,39.3,29.90,North,0,0.0,0.0,86,0.00,CLR,,0.02,WeatherDisplay:10.37,2013-02-08 13:59:00,
2013-02-08 06:04:00,43.2,39.6,29.90,North,0,0.0,0.0,87,0.00,CLR,,0.02,WeatherDisplay:10.37,2013-02-08 14:04:00,
2013-02-08 06:09:00,43.2,39.0,29.90,North,0,0.0,0.0,85,0.00,CLR,,0.02,WeatherDisplay:10.37,2013-02-08 14:09:00,
2013-02-08 06:14:00,43.2,39.0,29.90,North,0,0.0,0.0,85,0.00,CLR,,0.02,WeatherDisplay:10.37,2013-02-08 14:14:00,
2013-02-08 06:19:00,43.0,38.8,29.90,North,0,0.0,0.0,85,0.00,CLR,,0.02,WeatherDisplay:10.37,2013-02-08 14:19:00,
2013-02-08 06:24:00,43.0,38.8,29.91,North,0,0.0,0.0,85,0.00,CLR,,0.02,WeatherDisplay:10.37,2013-02-08 14:24:00,
2013-02-08 06:29:00,43.0,38.8,29.91,North,0,0.0,0.0,85,0.00,CLR,,0.02,WeatherDisplay:10.37,2013-02-08 14:29:00,
2013-02-08 06:34:00,43.0,38.8,29.91,North,0,0.0,0.0,85,0.00,CLR,,0.02,WeatherDisplay:10.37,2013-02-08 14:34:00,
2013-02-08 06:39:00,43.0,38.8,29.91,North,0,0.0,0.0,85,0.00,CLR,,0.02,WeatherDisplay:10.37,2013-02-08 14:39:00,
2013-02-08 06:44:00,42.8,38.6,29.91,North,0,0.0,0.0,85,0.00,CLR,,0.02,WeatherDisplay:10.37,2013-02-08 14:44:00,
2013-02-08 06:49:00,42.8,38.6,29.91,North,0,0.0,0.0,85,0.00,CLR,,0.02,WeatherDisplay:10.37,2013-02-08 14:49:00,
2013-02-08 06:54:00,42.8,38.9,29.91,North,0,0.0,0.0,86,0.00,CLR,,0.02,WeatherDisplay:10.37,2013-02-08 14:54:00,
2013-02-08 06:59:00,42.8,38.9,29.92,North,0,0.0,0.0,86,0.00,CLR,,0.02,WeatherDisplay:10.37,2013-02-08 14:59:00,
2013-02-08 07:04:00,42.8,38.9,29.92,North,0,0.0,0.0,86,0.00,CLR,,0.02,WeatherDisplay:10.37,2013-02-08 15:04:00,
2013-02-08 07:09:00,42.9,39.0,29.92,North,0,0.0,0.0,86,0.00,CLR,,0.02,WeatherDisplay:10.37,2013-02-08 15:09:00,
2013-02-08 07:14:00,43.0,39.1,29.92,North,0,0.0,0.0,86,0.00,CLR,,0.02,WeatherDisplay:10.37,2013-02-08 15:14:00,
2013-02-08 07:19:00,43.2,39.3,29.92,North,0,0.0,0.0,86,0.00,CLR,,0.02,WeatherDisplay:10.37,2013-02-08 15:19:00,
2013-02-08 07:24:00,43.2,39.3,29.92,North,0,0.0,0.0,86,0.00,CLR,,0.02,WeatherDisplay:10.37,2013-02-08 15:24:00,
2013-02-08 07:29:00,43.1,39.2,29.92,North,0,0.0,0.0,86,0.00,CLR,,0.02,WeatherDisplay:10.37,2013-02-08 15:29:00,
2013-02-08 07:34:00,43.2,39.3,29.92,North,0,0.0,0.0,86,0.00,CLR,,0.02,WeatherDisplay:10.37,2013-02-08 15:34:00,
2013-02-08 07:39:00,43.1,39.2,29.92,North,0,0.0,0.0,86,0.00,CLR,,0.02,WeatherDisplay:10.37,2013-02-08 15:39:00,
2013-02-08 07:44:00,43.1,39.2,29.92,North,0,0.0,0.0,86,0.00,CLR,,0.02,WeatherDisplay:10.37,2013-02-08 15:44:00,
2013-02-08 07:49:00,43.2,39.3,29.92,North,0,0.0,0.0,86,0.00,CLR,,0.02,WeatherDisplay:10.37,2013-02-08 15:49:00,
2013-02-08 07:54:00,43.2,39.3,29.92,North,0,0.0,0.0,86,0.00,CLR,,0.02,WeatherDisplay:10.37,2013-02-08 15:54:00,
2013-02-08 07:59:00,43.2,39.3,29.93,North,0,0.0,0.0,86,0.00,CLR,,0.02,WeatherDisplay:10.37,2013-02-08 15:59:00,
2013-02-08 08:04:00,43.2,39.3,29.93,North,0,0.0,0.0,86,0.00,CLR,,0.02,WeatherDisplay:10.37,2013-02-08 16:04:00,
2013-02-08 08:09:00,43.2,39.3,29.93,North,0,0.0,0.0,86,0.00,CLR,,0.02,WeatherDisplay:10.37,2013-02-08 16:09:00,
2013-02-08 08:14:00,43.2,39.3,29.93,North,0,0.0,0.0,86,0.00,CLR,,0.02,WeatherDisplay:10.37,2013-02-08 16:14:00,
2013-02-08 08:19:00,43.2,39.6,29.93,North,0,0.0,0.0,87,0.00,CLR,,0.02,WeatherDisplay:10.37,2013-02-08 16:19:00,
2013-02-08 08:24:00,43.3,40.0,29.93,North,0,0.0,0.0,88,0.00,CLR,,0.02,WeatherDisplay:10.37,2013-02-08 16:24:00,
2013-02-08 08:29:00,43.5,40.2,29.93,North,0,0.0,0.0,88,0.00,CLR,,0.02,WeatherDisplay:10.37,2013-02-08 16:29:00,
2013-02-08 08:34:00,43.7,40.4,29.93,North,0,0.0,0.0,88,0.00,CLR,,0.02,WeatherDisplay:10.37,2013-02-08 16:34:00,
2013-02-08 08:44:00,43.9,40.3,29.94,North,0,0.0,0.0,87,0.00,CLR,,0.02,WeatherDisplay:10.37,2013-02-08 16:44:00,
2013-02-08 08:49:00,43.9,40.3,29.94,North,0,0.0,0.0,87,0.00,CLR,,0.02,WeatherDisplay:10.37,2013-02-08 16:49:00,
2013-02-08 08:59:00,44.2,40.6,29.94,North,0,0.0,0.0,87,0.00,CLR,,0.02,WeatherDisplay:10.37,2013-02-08 16:59:00,
2013-02-08 09:04:00,44.8,41.1,29.94,North,0,0.0,0.0,87,0.00,CLR,,0.02,WeatherDisplay:10.37,2013-02-08 17:04:00,
2013-02-08 09:09:00,45.0,41.3,29.93,North,0,0.0,0.0,87,0.00,CLR,,0.02,WeatherDisplay:10.37,2013-02-08 17:09:00,
2013-02-08 09:19:00,45.3,41.3,29.94,North,0,0.0,0.0,86,0.00,CLR,,0.02,WeatherDisplay:10.37,2013-02-08 17:19:00,
2013-02-08 09:29:00,46.0,42.1,29.94,North,0,0.0,0.0,86,0.00,CLR,,0.02,WeatherDisplay:10.37,2013-02-08 17:29:00,
2013-02-08 09:34:00,46.6,42.6,29.94,North,0,0.0,0.0,86,0.00,CLR,,0.02,WeatherDisplay:10.37,2013-02-08 17:34:00,
2013-02-08 09:39:00,47.3,43.3,29.94,North,0,0.0,0.0,86,0.00,CLR,,0.02,WeatherDisplay:10.37,2013-02-08 17:39:00,
2013-02-08 09:44:00,47.7,43.4,29.94,North,0,0.0,0.0,85,0.00,CLR,,0.02,WeatherDisplay:10.37,2013-02-08 17:44:00,
2013-02-08 09:49:00,47.5,42.6,29.94,North,0,0.0,0.0,83,0.00,CLR,,0.02,WeatherDisplay:10.37,2013-02-08 17:49:00,
2013-02-08 09:54:00,47.8,43.2,29.95,North,0,0.0,0.0,84,0.00,CLR,,0.02,WeatherDisplay:10.37,2013-02-08 17:54:00,
2013-02-08 09:59:00,48.2,43.3,29.95,North,0,0.0,0.0,83,0.00,CLR,,0.02,WeatherDisplay:10.37,2013-02-08 17:59:00,
2013-02-08 10:04:00,48.6,43.6,29.95,North,0,0.0,0.0,83,0.00,CLR,,0.02,WeatherDisplay:10.37,2013-02-08 18:04:00,
2013-02-08 10:14:00,48.7,43.5,29.95,North,0,0.0,0.0,82,0.00,CLR,,0.02,WeatherDisplay:10.37,2013-02-08 18:14:00,
2013-02-08 10:19:00,48.6,43.3,29.95,North,0,0.0,0.0,82,0.00,CLR,,0.02,WeatherDisplay:10.37,2013-02-08 18:19:00,
2013-02-08 10:24:00,48.6,43.3,29.95,North,0,0.0,0.0,82,0.00,CLR,,0.02,WeatherDisplay:10.37,2013-02-08 18:24:00,
2013-02-08 10:29:00,48.6,43.3,29.95,North,0,0.0,0.0,82,0.00,CLR,,0.02,WeatherDisplay:10.37,2013-02-08 18:29:00,
2013-02-08 10:34:00,48.7,43.2,29.95,North,0,0.0,0.0,81,0.00,CLR,,0.02,WeatherDisplay:10.37,2013-02-08 18:34:00,
2013-02-08 10:39:00,48.7,43.2,29.96,North,0,0.0,0.0,81,0.00,CLR,,0.02,WeatherDisplay:10.37,2013-02-08 18:39:00,
2013-02-08 10:44:00,48.9,43.3,29.95,North,0,0.0,0.0,81,0.00,CLR,,0.02,WeatherDisplay:10.37,2013-02-08 18:44:00,
2013-02-08 10:49:00,49.0,43.4,29.95,North,0,0.0,0.0,81,0.00,CLR,,0.02,WeatherDisplay:10.37,2013-02-08 18:49:00,
2013-02-08 10:54:00,49.1,43.5,29.96,North,0,0.0,0.0,81,0.00,CLR,,0.02,WeatherDisplay:10.37,2013-02-08 18:54:00,
2013-02-08 10:59:00,49.1,43.2,29.96,North,0,0.0,0.0,80,0.00,CLR,,0.02,WeatherDisplay:10.37,2013-02-08 18:59:00,
2013-02-08 11:04:00,49.1,43.2,29.95,North,0,0.0,0.0,80,0.00,CLR,,0.02,WeatherDisplay:10.37,2013-02-08 19:04:00,
2013-02-08 11:09:00,49.1,43.2,29.96,North,0,0.0,0.0,80,0.00,CLR,,0.02,WeatherDisplay:10.37,2013-02-08 19:09:00,
2013-02-08 11:14:00,49.0,43.1,29.95,North,0,0.0,0.0,80,0.00,CLR,,0.02,WeatherDisplay:10.37,2013-02-08 19:14:00,
2013-02-08 11:19:00,48.9,43.0,29.95,North,0,0.0,0.0,80,0.00,CLR,,0.02,WeatherDisplay:10.37,2013-02-08 19:19:00,
2013-02-08 11:29:00,48.4,42.5,29.96,North,0,0.0,0.0,80,0.00,CLR,,0.02,WeatherDisplay:10.37,2013-02-08 19:29:00,
2013-02-08 11:34:00,48.1,42.2,29.95,North,0,0.0,0.0,80,0.00,CLR,,0.02,WeatherDisplay:10.37,2013-02-08 19:34:00,
2013-02-08 11:39:00,47.8,42.0,29.96,North,0,0.0,0.0,80,0.00,CLR,,0.02,WeatherDisplay:10.37,2013-02-08 19:39:00,
2013-02-08 11:44:00,47.8,42.0,29.95,North,0,0.0,0.0,80,0.00,CLR,,0.02,WeatherDisplay:10.37,2013-02-08 19:44:00,
2013-02-08 11:49:00,48.0,42.1,29.95,North,0,0.0,0.0,80,0.00,CLR,,0.02,WeatherDisplay:10.37,2013-02-08 19:49:00,
2013-02-08 11:54:00,48.3,42.4,29.95,North,0,0.0,0.0,80,0.00,CLR,,0.02,WeatherDisplay:10.37,2013-02-08 19:54:00,
2013-02-08 11:59:00,48.6,42.7,29.95,North,0,0.0,0.0,80,0.00,CLR,,0.02,WeatherDisplay:10.37,2013-02-08 19:59:00,
2013-02-08 12:04:00,48.6,42.3,29.95,North,0,0.0,0.0,79,0.00,CLR,,0.02,WeatherDisplay:10.37,2013-02-08 20:04:00,
2013-02-08 12:09:00,48.6,42.3,29.95,North,0,0.0,0.0,79,0.00,CLR,,0.02,WeatherDisplay:10.37,2013-02-08 20:09:00,
2013-02-08 12:14:00,48.6,42.3,29.95,North,0,0.0,0.0,79,0.00,CLR,,0.02,WeatherDisplay:10.37,2013-02-08 20:14:00,
2013-02-08 12:19:00,48.6,42.3,29.95,North,0,0.0,0.0,79,0.00,CLR,,0.02,WeatherDisplay:10.37,2013-02-08 20:19:00,
2013-02-08 12:24:00,48.6,42.3,29.94,North,0,0.0,0.0,79,0.00,CLR,,0.02,WeatherDisplay:10.37,2013-02-08 20:24:00,
2013-02-08 12:34:00,48.6,42.0,29.94,North,0,0.0,0.0,78,0.00,CLR,,0.02,WeatherDisplay:10.37,2013-02-08 20:34:00,
2013-02-08 12:39:00,48.8,42.3,29.94,North,0,0.0,0.0,78,0.00,CLR,,0.02,WeatherDisplay:10.37,2013-02-08 20:39:00,
2013-02-08 12:44:00,49.4,42.8,29.94,North,0,0.0,0.0,78,0.00,CLR,,0.02,WeatherDisplay:10.37,2013-02-08 20:44:00,
2013-02-08 12:49:00,50.0,43.4,29.93,North,0,0.0,0.0,78,0.00,CLR,,0.02,WeatherDisplay:10.37,2013-02-08 20:49:00,
2013-02-08 12:54:00,50.2,42.9,29.93,North,0,0.0,0.0,76,0.00,CLR,,0.02,WeatherDisplay:10.37,2013-02-08 20:54:00,
2013-02-08 12:59:00,50.4,43.1,29.93,North,0,0.0,0.0,76,0.00,CLR,,0.02,WeatherDisplay:10.37,2013-02-08 20:59:00,
2013-02-08 13:04:00,50.2,42.6,29.93,North,0,0.0,0.0,75,0.00,CLR,,0.02,WeatherDisplay:10.37,2013-02-08 21:04:00,
2013-02-08 13:09:00,50.0,42.4,29.93,North,0,0.0,0.0,75,0.00,CLR,,0.02,WeatherDisplay:10.37,2013-02-08 21:09:00,
2013-02-08 13:14:00,50.0,42.4,29.93,North,0,0.0,0.0,75,0.00,CLR,,0.02,WeatherDisplay:10.37,2013-02-08 21:14:00,
2013-02-08 13:19:00,49.6,41.7,29.93,North,0,0.0,0.0,74,0.00,CLR,,0.02,WeatherDisplay:10.37,2013-02-08 21:19:00,
2013-02-08 13:24:00,49.7,41.8,29.93,North,0,0.0,0.0,74,0.00,CLR,,0.02,WeatherDisplay:10.37,2013-02-08 21:24:00,
2013-02-08 13:29:00,50.3,42.3,29.93,North,0,0.0,0.0,74,0.00,CLR,,0.02,WeatherDisplay:10.37,2013-02-08 21:29:00,
2013-02-08 13:34:00,50.7,42.4,29.92,North,0,0.0,0.0,73,0.00,CLR,,0.02,WeatherDisplay:10.37,2013-02-08 21:34:00,
2013-02-08 13:39:00,51.1,42.4,29.92,North,0,0.0,0.0,72,0.00,CLR,,0.02,WeatherDisplay:10.37,2013-02-08 21:39:00,
2013-02-08 13:44:00,51.3,42.6,29.92,North,0,0.0,0.0,72,0.00,CLR,,0.02,WeatherDisplay:10.37,2013-02-08 21:44:00,
2013-02-08 13:49:00,51.4,42.7,29.92,North,0,0.0,0.0,72,0.00,CLR,,0.02,WeatherDisplay:10.37,2013-02-08 21:49:00,
2013-02-08 13:59:00,51.8,42.3,29.93,North,0,0.0,0.0,70,0.00,CLR,,0.02,WeatherDisplay:10.37,2013-02-08 21:59:00,
2013-02-08 14:04:00,51.8,42.3,29.93,North,0,0.0,0.0,70,0.00,CLR,,0.02,WeatherDisplay:10.37,2013-02-08 22:04:00,
2013-02-08 14:09:00,52.2,43.0,29.93,North,0,0.0,0.0,71,0.00,CLR,,0.02,WeatherDisplay:10.37,2013-02-08 22:09:00,
2013-02-08 14:14:00,52.2,43.0,29.93,North,0,0.0,0.0,71,0.00,CLR,,0.02,WeatherDisplay:10.37,2013-02-08 22:14:00,
2013-02-08 14:19:00,51.9,42.4,29.93,North,0,0.0,0.0,70,0.00,CLR,,0.02,WeatherDisplay:10.37,2013-02-08 22:19:00,
2013-02-08 14:24:00,51.6,42.2,29.92,North,0,0.0,0.0,70,0.00,CLR,,0.02,WeatherDisplay:10.37,2013-02-08 22:24:00,
2013-02-08 14:29:00,51.3,41.9,29.92,North,0,0.0,0.0,70,0.00,CLR,,0.02,WeatherDisplay:10.37,2013-02-08 22:29:00,
2013-02-08 14:34:00,51.3,41.8,29.92,North,0,0.0,0.0,70,0.00,CLR,,0.02,WeatherDisplay:10.37,2013-02-08 22:34:00,
2013-02-08 14:39:00,51.3,41.9,29.92,North,0,0.0,0.0,70,0.00,CLR,,0.02,WeatherDisplay:10.37,2013-02-08 22:39:00,
2013-02-08 14:44:00,51.6,42.2,29.92,North,0,0.0,0.0,70,0.00,CLR,,0.02,WeatherDisplay:10.37,2013-02-08 22:44:00,
2013-02-08 14:49:00,52.0,42.9,29.92,North,0,0.0,0.0,71,0.00,CLR,,0.02,WeatherDisplay:10.37,2013-02-08 22:49:00,
2013-02-08 14:54:00,52.2,42.7,29.92,North,0,0.0,0.0,70,0.00,CLR,,0.02,WeatherDisplay:10.37,2013-02-08 22:54:00,
2013-02-08 14:59:00,52.2,42.7,29.92,North,0,0.0,0.0,70,0.00,CLR,,0.02,WeatherDisplay:10.37,2013-02-08 22:59:00,
2013-02-08 15:04:00,52.1,42.3,29.92,North,0,0.0,0.0,69,0.00,CLR,,0.02,WeatherDisplay:10.37,2013-02-08 23:04:00,
2013-02-08 15:09:00,52.0,42.1,29.92,North,0,0.0,0.0,69,0.00,CLR,,0.02,WeatherDisplay:10.37,2013-02-08 23:09:00,
2013-02-08 15:14:00,51.9,41.6,29.92,North,0,0.0,0.0,68,0.00,CLR,,0.02,WeatherDisplay:10.37,2013-02-08 23:14:00,
2013-02-08 15:24:00,52.2,41.5,29.92,North,0,0.0,0.0,67,0.00,CLR,,0.02,WeatherDisplay:10.37,2013-02-08 23:24:00,
2013-02-08 15:29:00,52.2,41.5,29.92,North,0,0.0,0.0,67,0.00,CLR,,0.02,WeatherDisplay:10.37,2013-02-08 23:29:00,
2013-02-08 15:34:00,52.3,41.6,29.92,North,0,0.0,0.0,67,0.00,CLR,,0.02,WeatherDisplay:10.37,2013-02-08 23:34:00,
2013-02-08 15:39:00,52.3,41.7,29.92,North,0,0.0,0.0,67,0.00,CLR,,0.02,WeatherDisplay:10.37,2013-02-08 23:39:00,
2013-02-08 15:44:00,52.5,42.3,29.92,North,0,0.0,0.0,68,0.00,CLR,,0.02,WeatherDisplay:10.37,2013-02-08 23:44:00,
2013-02-08 15:49:00,52.5,42.3,29.92,North,0,0.0,0.0,68,0.00,CLR,,0.02,WeatherDisplay:10.37,2013-02-08 23:49:00,
2013-02-08 15:54:00,52.7,42.4,29.92,North,0,0.0,0.0,68,0.00,CLR,,0.02,WeatherDisplay:10.37,2013-02-08 23:54:00,
2013-02-08 15:59:00,52.9,42.6,29.92,North,0,0.0,0.0,68,0.00,CLR,,0.02,WeatherDisplay:10.37,2013-02-08 23:59:00,
2013-02-08 16:04:00,53.2,42.9,29.92,North,0,0.0,0.0,68,0.00,CLR,,0.02,WeatherDisplay:10.37,2013-02-09 00:04:00,
2013-02-08 16:09:00,53.2,42.6,29.92,North,0,0.0,0.0,67,0.00,CLR,,0.02,WeatherDisplay:10.37,2013-02-09 00:09:00,
2013-02-08 16:14:00,53.4,42.7,29.92,North,0,0.0,0.0,67,0.00,CLR,,0.02,WeatherDisplay:10.37,2013-02-09 00:14:00,
2013-02-08 16:19:00,53.2,42.2,29.92,North,0,0.0,0.0,66,0.00,CLR,,0.02,WeatherDisplay:10.37,2013-02-09 00:19:00,
2013-02-08 16:24:00,53.0,41.5,29.92,North,0,0.0,0.0,65,0.00,CLR,,0.02,WeatherDisplay:10.37,2013-02-09 00:24:00,
2013-02-08 16:29:00,52.7,41.3,29.92,North,0,0.0,0.0,65,0.00,CLR,,0.02,WeatherDisplay:10.37,2013-02-09 00:29:00,
2013-02-08 16:34:00,52.5,41.5,29.92,North,0,0.0,0.0,66,0.00,CLR,,0.02,WeatherDisplay:10.37,2013-02-09 00:34:00,
2013-02-08 16:39:00,52.4,41.4,29.92,North,0,0.0,0.0,66,0.00,CLR,,0.02,WeatherDisplay:10.37,2013-02-09 00:39:00,
2013-02-08 16:44:00,52.3,41.3,29.92,North,0,0.0,0.0,66,0.00,CLR,,0.02,WeatherDisplay:10.37,2013-02-09 00:44:00,
2013-02-08 16:49:00,52.3,41.7,29.92,North,0,0.0,0.0,67,0.00,CLR,,0.02,WeatherDisplay:10.37,2013-02-09 00:49:00,
2013-02-08 16:54:00,52.2,41.5,29.92,North,0,0.0,0.0,67,0.00,CLR,,0.02,WeatherDisplay:10.37,2013-02-09 00:54:00,
2013-02-08 16:59:00,52.0,41.4,29.92,North,0,0.0,0.0,67,0.00,CLR,,0.02,WeatherDisplay:10.37,2013-02-09 00:59:00,
2013-02-08 17:04:00,51.8,41.2,29.92,North,0,0.0,0.0,67,0.00,CLR,,0.02,WeatherDisplay:10.37,2013-02-09 01:04:00,
2013-02-08 17:09:00,51.6,41.4,29.92,North,0,0.0,0.0,68,0.00,CLR,,0.02,WeatherDisplay:10.37,2013-02-09 01:09:00,
2013-02-08 17:14:00,51.3,41.1,29.92,North,0,0.0,0.0,68,0.00,CLR,,0.02,WeatherDisplay:10.37,2013-02-09 01:14:00,
2013-02-08 17:19:00,51.1,40.9,29.92,North,0,0.0,0.0,68,0.00,CLR,,0.02,WeatherDisplay:10.37,2013-02-09 01:19:00,
2013-02-08 17:24:00,50.7,40.5,29.92,North,0,0.0,0.0,68,0.00,CLR,,0.02,WeatherDisplay:10.37,2013-02-09 01:24:00,
2013-02-08 17:29:00,50.5,40.4,29.92,North,0,0.0,0.0,68,0.00,CLR,,0.02,WeatherDisplay:10.37,2013-02-09 01:29:00,
2013-02-08 17:34:00,50.4,40.2,29.92,North,0,0.0,0.0,68,0.00,CLR,,0.02,WeatherDisplay:10.37,2013-02-09 01:34:00,
2013-02-08 17:39:00,50.2,40.0,29.92,North,0,0.0,0.0,68,0.00,CLR,,0.02,WeatherDisplay:10.37,2013-02-09 01:39:00,
2013-02-08 17:44:00,50.0,40.2,29.93,North,0,0.0,0.0,69,0.00,CLR,,0.02,WeatherDisplay:10.37,2013-02-09 01:44:00,
2013-02-08 17:49:00,49.8,40.1,29.93,North,0,0.0,0.0,69,0.00,CLR,,0.02,WeatherDisplay:10.37,2013-02-09 01:49:00,
2013-02-08 17:54:00,49.5,39.7,29.93,North,0,0.0,0.0,69,0.00,CLR,,0.02,WeatherDisplay:10.37,2013-02-09 01:54:00,
2013-02-08 17:59:00,49.5,40.1,29.93,North,0,0.0,0.0,70,0.00,CLR,,0.02,WeatherDisplay:10.37,2013-02-09 01:59:00,
2013-02-08 18:04:00,49.3,39.9,29.93,North,0,0.0,0.0,70,0.00,CLR,,0.02,WeatherDisplay:10.37,2013-02-09 02:04:00,
2013-02-08 18:09:00,49.1,39.7,29.93,North,0,0.0,0.0,70,0.00,CLR,,0.02,WeatherDisplay:10.37,2013-02-09 02:09:00,
2013-02-08 18:14:00,48.9,39.6,29.93,North,0,0.0,0.0,70,0.00,CLR,,0.02,WeatherDisplay:10.37,2013-02-09 02:14:00,
2013-02-08 18:19:00,48.7,39.8,29.93,North,0,0.0,0.0,71,0.00,CLR,,0.02,WeatherDisplay:10.37,2013-02-09 02:19:00,
2013-02-08 18:24:00,48.6,39.6,29.93,North,0,0.0,0.0,71,0.00,CLR,,0.02,WeatherDisplay:10.37,2013-02-09 02:24:00,
2013-02-08 18:34:00,48.2,39.6,29.94,North,0,0.0,0.0,72,0.00,CLR,,0.02,WeatherDisplay:10.37,2013-02-09 02:34:00,
2013-02-08 18:39:00,48.0,39.4,29.94,North,0,0.0,0.0,72,0.00,CLR,,0.02,WeatherDisplay:10.37,2013-02-09 02:39:00,
2013-02-08 18:44:00,47.8,39.2,29.93,North,0,0.0,0.0,72,0.00,CLR,,0.02,WeatherDisplay:10.37,2013-02-09 02:44:00,
2013-02-08 18:49:00,47.6,39.0,29.93,North,0,0.0,0.0,72,0.00,CLR,,0.02,WeatherDisplay:10.37,2013-02-09 02:49:00,
2013-02-08 18:54:00,47.3,38.7,29.94,North,0,0.0,0.0,72,0.00,CLR,,0.02,WeatherDisplay:10.37,2013-02-09 02:54:00,
2013-02-08 18:59:00,47.1,38.9,29.94,North,0,0.0,0.0,73,0.00,CLR,,0.02,WeatherDisplay:10.37,2013-02-09 02:59:00,
2013-02-08 19:04:00,46.9,38.7,29.94,North,0,0.0,0.0,73,0.00,CLR,,0.02,WeatherDisplay:10.37,2013-02-09 03:04:00,
2013-02-08 19:09:00,46.8,38.6,29.94,North,0,0.0,0.0,73,0.00,CLR,,0.02,WeatherDisplay:10.37,2013-02-09 03:09:00,
2013-02-08 19:14:00,46.6,38.4,29.93,North,0,0.0,0.0,73,0.00,CLR,,0.02,WeatherDisplay:10.37,2013-02-09 03:14:00,
2013-02-08 19:19:00,46.4,38.6,29.94,North,0,0.0,0.0,74,0.00,CLR,,0.02,WeatherDisplay:10.37,2013-02-09 03:19:00,
2013-02-08 19:24:00,46.1,38.3,29.93,North,0,0.0,0.0,74,0.00,CLR,,0.02,WeatherDisplay:10.37,2013-02-09 03:24:00,
2013-02-08 19:29:00,45.9,38.1,29.93,North,0,0.0,0.0,74,0.00,CLR,,0.02,WeatherDisplay:10.37,2013-02-09 03:29:00,
2013-02-08 19:34:00,45.8,38.3,29.93,North,0,0.0,0.0,75,0.00,CLR,,0.02,WeatherDisplay:10.37,2013-02-09 03:34:00,
2013-02-08 19:39:00,45.7,38.2,29.93,North,0,0.0,0.0,75,0.00,CLR,,0.02,WeatherDisplay:10.37,2013-02-09 03:39:00,
2013-02-08 19:44:00,45.5,38.0,29.93,North,0,0.0,0.0,75,0.00,CLR,,0.02,WeatherDisplay:10.37,2013-02-09 03:44:00,
2013-02-08 19:49:00,45.5,38.0,29.93,North,0,0.0,0.0,75,0.00,CLR,,0.02,WeatherDisplay:10.37,2013-02-09 03:49:00,
2013-02-08 19:54:00,45.4,38.0,29.93,North,0,0.0,0.0,75,0.00,CLR,,0.02,WeatherDisplay:10.37,2013-02-09 03:54:00,
2013-02-08 19:59:00,45.3,37.5,29.93,North,0,0.0,0.0,74,0.00,CLR,,0.02,WeatherDisplay:10.37,2013-02-09 03:59:00,
2013-02-08 20:04:00,45.2,37.7,29.94,North,0,0.0,0.0,75,0.00,CLR,,0.02,WeatherDisplay:10.37,2013-02-09 04:04:00,
2013-02-08 20:09:00,45.0,37.6,29.93,North,0,0.0,0.0,75,0.00,CLR,,0.02,WeatherDisplay:10.37,2013-02-09 04:09:00,
2013-02-08 20:19:00,44.8,37.3,29.94,North,0,0.0,0.0,75,0.00,CLR,,0.02,WeatherDisplay:10.37,2013-02-09 04:19:00,
2013-02-08 20:24:00,44.6,37.2,29.94,North,0,0.0,0.0,75,0.00,CLR,,0.02,WeatherDisplay:10.37,2013-02-09 04:24:00,
2013-02-08 20:29:00,44.4,37.3,29.94,North,0,0.0,0.0,76,0.00,CLR,,0.02,WeatherDisplay:10.37,2013-02-09 04:29:00,
2013-02-08 20:39:00,44.2,37.2,29.94,North,0,0.0,0.0,76,0.00,CLR,,0.02,WeatherDisplay:10.37,2013-02-09 04:39:00,
2013-02-08 20:44:00,44.2,37.2,29.94,North,0,0.0,0.0,76,0.00,CLR,,0.02,WeatherDisplay:10.37,2013-02-09 04:44:00,
2013-02-08 20:49:00,44.1,37.3,29.94,North,0,0.0,0.0,77,0.00,CLR,,0.02,WeatherDisplay:10.37,2013-02-09 04:49:00,
2013-02-08 20:54:00,43.9,37.1,29.94,North,0,0.0,0.0,77,0.00,CLR,,0.02,WeatherDisplay:10.37,2013-02-09 04:54:00,
2013-02-08 20:59:00,43.9,37.1,29.94,North,0,0.0,0.0,77,0.00,CLR,,0.02,WeatherDisplay:10.37,2013-02-09 04:59:00,
2013-02-08 21:04:00,43.7,37.0,29.94,North,0,0.0,0.0,77,0.00,CLR,,0.02,WeatherDisplay:10.37,2013-02-09 05:04:00,
2013-02-08 21:09:00,43.7,37.0,29.94,North,0,0.0,0.0,77,0.00,CLR,,0.02,WeatherDisplay:10.37,2013-02-09 05:09:00,
2013-02-08 21:14:00,43.5,36.8,29.94,North,0,0.0,0.0,77,0.00,CLR,,0.02,WeatherDisplay:10.37,2013-02-09 05:14:00,
2013-02-08 21:19:00,43.5,36.8,29.94,North,0,0.0,0.0,77,0.00,CLR,,0.02,WeatherDisplay:10.37,2013-02-09 05:19:00,
2013-02-08 21:24:00,43.3,36.6,29.94,North,0,0.0,0.0,77,0.00,CLR,,0.02,WeatherDisplay:10.37,2013-02-09 05:24:00,
2013-02-08 21:34:00,43.2,36.8,29.94,North,0,0.0,0.0,78,0.00,CLR,,0.02,WeatherDisplay:10.37,2013-02-09 05:34:00,
2013-02-08 21:39:00,43.0,36.6,29.94,North,0,0.0,0.0,78,0.00,CLR,,0.02,WeatherDisplay:10.37,2013-02-09 05:39:00,
2013-02-08 21:44:00,43.0,36.6,29.94,North,0,0.0,0.0,78,0.00,CLR,,0.02,WeatherDisplay:10.37,2013-02-09 05:44:00,
2013-02-08 21:49:00,42.8,36.4,29.94,North,0,0.0,0.0,78,0.00,CLR,,0.02,WeatherDisplay:10.37,2013-02-09 05:49:00,
2013-02-08 21:54:00,42.8,36.4,29.95,North,0,0.0,0.0,78,0.00,CLR,,0.02,WeatherDisplay:10.37,2013-02-09 05:54:00,
2013-02-08 21:59:00,42.8,36.7,29.95,North,0,0.0,0.0,79,0.00,CLR,,0.02,WeatherDisplay:10.37,2013-02-09 05:59:00,
2013-02-08 22:04:00,42.6,36.6,29.94,North,0,0.0,0.0,79,0.00,CLR,,0.02,WeatherDisplay:10.37,2013-02-09 06:04:00,
2013-02-08 22:09:00,42.4,36.4,29.94,North,0,0.0,0.0,79,0.00,CLR,,0.02,WeatherDisplay:10.37,2013-02-09 06:09:00,
2013-02-08 22:14:00,42.4,36.4,29.95,North,0,0.0,0.0,79,0.00,CLR,,0.02,WeatherDisplay:10.37,2013-02-09 06:14:00,
2013-02-08 22:19:00,42.4,36.4,29.95,North,0,0.0,0.0,79,0.00,CLR,,0.02,WeatherDisplay:10.37,2013-02-09 06:19:00,
2013-02-08 22:24:00,42.4,36.4,29.94,North,0,0.0,0.0,79,0.00,CLR,,0.02,WeatherDisplay:10.37,2013-02-09 06:24:00,
2013-02-08 22:29:00,42.4,36.4,29.94,North,0,0.0,0.0,79,0.00,CLR,,0.02,WeatherDisplay:10.37,2013-02-09 06:29:00,
2013-02-08 22:34:00,42.3,36.2,29.95,North,0,0.0,0.0,79,0.00,CLR,,0.02,WeatherDisplay:10.37,2013-02-09 06:34:00,
2013-02-08 22:39:00,42.2,36.1,29.95,North,0,0.0,0.0,79,0.00,CLR,,0.02,WeatherDisplay:10.37,2013-02-09 06:39:00,
2013-02-08 22:44:00,42.1,36.0,29.95,North,0,0.0,0.0,79,0.00,CLR,,0.02,WeatherDisplay:10.37,2013-02-09 06:44:00,
2013-02-08 22:49:00,42.1,36.4,29.95,North,0,0.0,0.0,80,0.00,CLR,,0.02,WeatherDisplay:10.37,2013-02-09 06:49:00,
2013-02-08 22:54:00,42.1,36.4,29.94,North,0,0.0,0.0,80,0.00,CLR,,0.02,WeatherDisplay:10.37,2013-02-09 06:54:00,
2013-02-08 22:59:00,41.9,36.2,29.94,North,0,0.0,0.0,80,0.00,CLR,,0.02,WeatherDisplay:10.37,2013-02-09 06:59:00,
2013-02-08 23:04:00,41.9,36.2,29.94,North,0,0.0,0.0,80,0.00,CLR,,0.02,WeatherDisplay:10.37,2013-02-09 07:04:00,
2013-02-08 23:09:00,41.9,36.2,29.94,North,0,0.0,0.0,80,0.00,CLR,,0.02,WeatherDisplay:10.37,2013-02-09 07:09:00,
2013-02-08 23:19:00,41.7,36.0,29.94,North,0,0.0,0.0,80,0.00,CLR,,0.02,WeatherDisplay:10.37,2013-02-09 07:19:00,
2013-02-08 23:24:00,41.5,35.8,29.94,North,0,0.0,0.0,80,0.00,CLR,,0.02,WeatherDisplay:10.37,2013-02-09 07:24:00,
2013-02-08 23:29:00,41.5,36.1,29.94,North,0,0.0,0.0,81,0.00,CLR,,0.02,WeatherDisplay:10.37,2013-02-09 07:29:00,
2013-02-08 23:34:00,41.6,36.2,29.94,North,0,0.0,0.0,81,0.00,CLR,,0.02,WeatherDisplay:10.37,2013-02-09 07:34:00,
2013-02-08 23:39:00,41.7,36.3,29.94,North,0,0.0,0.0,81,0.00,CLR,,0.02,WeatherDisplay:10.37,2013-02-09 07:39:00,
2013-02-08 23:44:00,41.5,36.1,29.95,North,0,0.0,0.0,81,0.00,CLR,,0.02,WeatherDisplay:10.37,2013-02-09 07:44:00,
2013-02-08 23:49:00,41.5,35.8,29.95,North,0,0.0,0.0,80,0.00,CLR,,0.02,WeatherDisplay:10.37,2013-02-09 07:49:00,
2013-02-08 23:54:00,41.4,35.7,29.95,North,0,0.0,0.0,80,0.00,CLR,,0.02,WeatherDisplay:10.37,2013-02-09 07:54:00,
2013-02-08 23:59:00,41.2,35.8,29.95,North,0,0.0,0.0,81,0.00,RA,,0.00,WeatherDisplay:10.37,2013-02-09 07:59:00,